User: anonymous   Login
Location: Launois
(49.6535°N, 4.5395°E)
Time: 12:47:48
(UTC+00:00)
Language:

Cosmos 1703 - Orbit

View from above orbital plane
View from above orbital plane
View from above satellite
View from above satellite

Ground track
Ground track

The orbit data is extracted from the following two-line orbital elements,

1 16262U 85108A   24206.03703461  .00014239  00000-0  56511-3 0  9997
2 16262  82.4682 210.4536 0006597 337.3006  22.7939 15.25217780111169
Epoch (UTC): 24 July 2024 00:53:19
Eccentricity: 0.0006597
inclination: 82.4682°
perigee height: 485 km
apogee height: 494 km
right ascension of ascending node: 210.4536°
argument of perigee: 337.3006°
revolutions per day: 15.25217780
mean anomaly at epoch: 22.7939°
orbit number at epoch: 11116

The dashed part of the orbit path shows where the satellite is in the earth's shadow,  

DLR